User: anonymous   Login
Location: Newark
(48.5156°N, 1.8989°W)
Time: 00:27:53
(UTC+00:00)
Language:

Transit 4A - Orbit

View from above orbital plane
View from above orbital plane
View from above satellite
View from above satellite

Ground track
Ground track

The orbit data is extracted from the following two-line orbital elements,

1 00116U 61015A   21024.37264848 -.00000068  00000-0  72641-5 0  9992
2 00116  66.8105  28.1414 0079580 218.2103 141.3320 13.91781911 22562
Epoch (UTC): 24 January 2021 08:56:36
Eccentricity: 0.0079580
inclination: 66.8105°
perigee height: 864 km
apogee height: 980 km
right ascension of ascending node: 28.1414°
argument of perigee: 218.2103°
revolutions per day: 13.91781911
mean anomaly at epoch: 141.3320°
orbit number at epoch: 2256

The dashed part of the orbit path shows where the satellite is in the earth's shadow,  

DLR